Date String (YYYY-MM-DD hh:mm:ss) UTC,Instrument flags,Ambient pressure (hPa),Sample flow (lpm),Bypass flow (lpm),Sample temperature (°C),Ambient temperature (°C),ASC tube jacket temperature (°C),LED temperature (°C),Box temperature (°C),Sample RH (%),Span deviation,Mass concentration (μg/m³),Mass concentration (μg/m³),Mass concentration (μg/m³)
DateTimeUTC,F1_M11,P_M11,Q1_M11,Q2_M11,T1_M11,T2_M11,T3_M11,T4_M11,T5_M11,U1_M11,ZSPAN_M11,X2_M11,X0_M11,X1_M11
2022-06-15 02:00:00,,0819.9,4.99,0.00,29.4,28.1,00.0,38.3,31.4,20.2,0000.0,0006.93,0019.74,0003.16
2022-06-15 02:01:00,,0819.9,5.00,0.00,29.5,28.3,00.0,38.3,31.4,20.1,0000.0,0006.89,0019.37,0003.15
2022-06-15 02:02:00,,0819.9,5.00,0.00,29.5,28.4,00.0,38.3,31.5,20.1,0000.0,0006.80,0018.90,0003.14
2022-06-15 02:03:00,,0820.0,5.00,0.00,29.5,28.6,00.0,38.4,31.5,20.0,0000.0,0006.77,0019.31,0003.14
2022-06-15 02:04:00,,0819.9,4.99,0.00,29.6,28.7,00.0,38.4,31.6,19.9,0000.0,0006.82,0019.68,0003.13
2022-06-15 02:05:00,,0819.9,5.00,0.00,29.6,28.8,00.0,38.4,31.7,19.9,0000.0,0006.84,0019.42,0003.12
2022-06-15 02:06:00,,0819.9,5.00,0.00,29.7,28.9,00.0,38.4,31.7,19.8,0000.0,0006.86,0020.40,0003.12
2022-06-15 02:07:00,,0819.9,5.00,0.00,29.7,28.9,00.0,38.4,31.7,19.7,0000.0,0006.92,0020.84,0003.13
2022-06-15 02:08:00,,0819.9,5.01,0.00,29.7,28.2,00.0,38.4,31.5,19.6,0000.0,0006.82,0020.15,0003.12
2022-06-15 02:09:00,,0819.9,5.00,0.00,29.6,27.3,00.0,38.3,31.1,19.7,0000.0,0006.77,0019.71,0003.11
2022-06-15 02:10:00,,0820.0,5.01,0.00,29.5,27.0,00.0,38.3,31.1,19.7,0000.0,0006.84,0019.91,0003.11
2022-06-15 02:11:00,,0819.9,4.99,0.00,29.4,27.1,00.0,38.3,31.1,19.8,0000.0,0006.83,0019.81,0003.11
2022-06-15 02:12:00,,0819.9,5.01,0.00,29.4,27.2,00.0,38.3,31.1,19.8,0000.0,0006.85,0020.32,0003.11
2022-06-15 02:13:00,,0819.9,5.00,0.00,29.4,27.4,00.0,38.3,31.2,19.8,0000.0,0006.90,0020.48,0003.12
2022-06-15 02:14:00,,0819.9,4.99,0.00,29.4,27.6,00.0,38.3,31.2,19.7,0000.0,0006.95,0020.20,0003.14
2022-06-15 02:15:00,,0820.0,5.00,0.00,29.4,27.8,00.0,38.3,31.3,19.7,0000.0,0006.86,0019.49,0003.14
2022-06-15 02:16:00,,0820.0,5.00,0.00,29.4,28.0,00.0,38.3,31.3,19.6,0000.0,0006.82,0019.40,0003.14
2022-06-15 02:17:00,,0820.1,5.01,0.00,29.4,28.2,00.0,38.3,31.4,19.5,0000.0,0006.86,0019.12,0003.14
2022-06-15 02:18:00,,0820.1,5.00,0.00,29.5,28.4,00.0,38.3,31.4,19.4,0000.0,0006.83,0019.04,0003.14
2022-06-15 02:19:00,,0820.1,5.00,0.00,29.5,28.5,00.0,38.3,31.5,19.4,0000.0,0006.90,0020.35,0003.14
2022-06-15 02:20:00,,0820.1,5.00,0.00,29.5,28.6,00.0,38.3,31.5,19.3,0000.0,0007.02,0020.75,0003.14
2022-06-15 02:21:00,,0820.1,5.01,0.00,29.6,28.7,00.0,38.4,31.6,19.2,0000.0,0007.04,0021.45,0003.16
2022-06-15 02:22:00,,0820.1,5.00,0.00,29.6,28.8,00.0,38.4,31.7,19.1,0000.0,0007.03,0021.90,0003.16
2022-06-15 02:23:00,,0820.2,4.99,0.00,29.7,28.9,00.0,38.4,31.7,19.0,0000.0,0006.96,0022.34,0003.16
2022-06-15 02:24:00,,0820.2,5.00,0.00,29.7,28.9,00.0,38.4,31.7,19.0,0000.0,0007.00,0024.55,0003.15
2022-06-15 02:25:00,,0820.2,5.00,0.00,29.7,28.2,00.0,38.4,31.5,18.9,0000.0,0006.94,0025.43,0003.14
2022-06-15 02:26:00,,0820.2,5.01,0.00,29.6,27.7,00.0,38.3,31.4,18.9,0000.0,0007.02,0026.16,0003.15
2022-06-15 02:27:00,,0820.2,4.99,0.00,29.6,27.6,00.0,38.3,31.3,18.9,0000.0,0007.06,0026.66,0003.16
2022-06-15 02:28:00,,0820.2,5.00,0.00,29.5,27.7,00.0,38.4,31.3,19.0,0000.0,0007.12,0027.39,0003.17
2022-06-15 02:29:00,,0820.3,5.02,0.00,29.5,27.8,00.0,38.4,31.4,19.0,0000.0,0007.11,0027.55,0003.18
2022-06-15 02:30:00,,0820.3,4.99,0.00,29.5,28.0,00.0,38.4,31.4,19.0,0000.0,0007.13,0027.33,0003.20
2022-06-15 02:31:00,,0820.3,4.99,0.00,29.5,28.1,00.0,38.4,31.4,18.9,0000.0,0007.15,0026.94,0003.22
2022-06-15 02:32:00,,0820.4,5.00,0.00,29.6,28.3,00.0,38.4,31.5,18.9,0000.0,0007.18,0026.85,0003.23
2022-06-15 02:33:00,,0820.4,5.00,0.00,29.6,28.4,00.0,38.4,31.5,18.9,0000.0,0007.21,0026.63,0003.24
2022-06-15 02:34:00,,0820.4,5.01,0.00,29.6,28.6,00.0,38.4,31.6,18.8,0000.0,0007.36,0027.53,0003.25
2022-06-15 02:35:00,,0820.5,5.01,0.00,29.6,28.7,00.0,38.4,31.6,18.8,0000.0,0007.35,0026.07,0003.27
2022-06-15 02:36:00,,0820.5,4.99,0.00,29.7,28.8,00.0,38.5,31.7,18.7,0000.0,0007.37,0025.45,0003.28
2022-06-15 02:37:00,,0820.5,4.99,0.00,29.7,28.9,00.0,38.5,31.7,18.6,0000.0,0007.38,0025.70,0003.28
2022-06-15 02:38:00,,0820.6,5.00,0.00,29.7,28.5,00.0,38.4,31.6,18.7,0000.0,0007.36,0025.46,0003.27
2022-06-15 02:39:00,,0820.6,5.01,0.00,29.7,27.8,00.0,38.4,31.4,18.7,0000.0,0007.27,0024.62,0003.27
2022-06-15 02:40:00,,0820.6,4.99,0.00,29.6,27.6,00.0,38.4,31.4,18.8,0000.0,0007.19,0024.16,0003.26
2022-06-15 02:41:00,,0820.6,5.00,0.00,29.6,27.7,00.0,38.4,31.3,18.8,0000.0,0007.17,0023.87,0003.24
2022-06-15 02:42:00,,0820.6,5.00,0.00,29.5,27.8,00.0,38.4,31.4,18.8,0000.0,0007.11,0024.25,0003.24
2022-06-15 02:43:00,,0820.6,5.01,0.00,29.5,27.9,00.0,38.4,31.4,18.8,0000.0,0007.03,0025.07,0003.23
2022-06-15 02:44:00,,0820.7,5.00,0.00,29.5,28.1,00.0,38.4,31.4,18.8,0000.0,0007.03,0025.59,0003.22
2022-06-15 02:45:00,,0820.6,5.00,0.00,29.6,28.2,00.0,38.4,31.5,18.8,0000.0,0006.90,0024.27,0003.21
2022-06-15 02:46:00,,0820.6,5.00,0.00,29.6,28.4,00.0,38.4,31.5,18.7,0000.0,0006.93,0025.15,0003.22
2022-06-15 02:47:00,,0820.6,4.99,0.00,29.6,28.5,00.0,38.4,31.6,18.7,0000.0,0007.00,0024.86,0003.23
2022-06-15 02:48:00,,0820.7,4.99,0.00,29.7,28.6,00.0,38.5,31.6,18.6,0000.0,0007.07,0025.58,0003.24
2022-06-15 02:49:00,,0820.7,5.00,0.00,29.7,28.8,00.0,38.5,31.7,18.6,0000.0,0007.13,0026.16,0003.25
2022-06-15 02:50:00,,0820.7,5.01,0.00,29.7,28.9,00.0,38.5,31.7,18.6,0000.0,0007.17,0027.84,0003.26
2022-06-15 02:51:00,,0820.7,5.00,0.00,29.8,28.9,00.0,38.5,31.8,18.5,0000.0,0007.26,0027.64,0003.27
2022-06-15 02:52:00,,0820.7,4.99,0.00,29.8,28.4,00.0,38.5,31.6,18.5,0000.0,0007.30,0027.50,0003.29
2022-06-15 02:53:00,,0820.8,5.01,0.00,29.7,27.4,00.0,38.4,31.3,18.6,0000.0,0007.46,0027.62,0003.30
2022-06-15 02:54:00,,0820.8,4.99,0.00,29.6,27.0,00.0,38.4,31.2,18.7,0000.0,0007.51,0027.85,0003.30
2022-06-15 02:55:00,,0820.9,4.99,0.00,29.5,27.0,00.0,38.3,31.1,18.8,0000.0,0007.55,0027.78,0003.31
2022-06-15 02:56:00,,0820.9,5.01,0.00,29.4,27.1,00.0,38.3,31.1,18.9,0000.0,0007.61,0028.37,0003.30
2022-06-15 02:57:00,,0820.9,5.00,0.00,29.4,27.3,00.0,38.3,31.2,18.9,0000.0,0007.71,0027.78,0003.29
2022-06-15 02:58:00,,0820.9,5.00,0.00,29.4,27.5,00.0,38.3,31.2,19.0,0000.0,0007.65,0027.66,0003.28
2022-06-15 02:59:00,,0821.0,4.99,0.00,29.4,27.7,00.0,38.3,31.3,19.0,0000.0,0007.57,0027.06,0003.26
